CZ-4C DEB, 42671

Orbit data source: Space-Track

CZ-4C DEB, 42671 is space debris in SSO originally from a launch on Thu, 26 Nov 2015 UTC launched from the Taiyaun Space Center, China (TSC). Debris objects in space refer to the collection of defunct objects orbiting the Earth. Examples of debris include non-operational satellites, rocket bodies, and fragments generated from explosions, collisions, or faulty payload assembly.

Loading next visibility...
Identifier
42671, 2015-069D
Orbit
SSO
Country
Flag of CNCN / PRC
Related business
Manufacturer
Unknown
Mission
Spacecraft
Bus & Motor
Unknown
Mass
Unknown
Launch date (UTC)
2015-11-26 (10 years ago)
Launch vehicle
Unknown
Launch site
Taiyaun Space Center, China (TSC)
Object type
Payload
Rocket body
Debris
Shape & HBR
Unknown shape, 0.1 m
Radar Cross Section
Small (<0.1 m²)

Expand to show TLE details & history
Last TLE update: 12 hours ago

TLE from 12 hours ago
0 CZ-4C DEB
1 42671U 15069D   26034.08776644  .00005136  00000-0  67302-3 0  9994
2 42671  97.8028 259.8063 0115978  85.9860 275.4598 14.76117890536701
Epoch: 2026-02-03T02:06Z
TLE epoch observation values (Epoch: 2026-02-03T02:06:23.020Z)
Latitude
-0.00001°
Longitude
94.93666°
Altitude
637.814 km
Speed
7.543 km/s
True Right ascension
17h 19m 13s
True Declination
0° 00' 00"
Sunlit
Object was in daylight at epoch
Visualization orbit readout
Latitude
Unknown
Longitude
Unknown
Altitude
Unknown
Speed
Unknown
Apparent Right ascension
Unknown
Apparent Declination
Unknown
Sunlit
N/A
Visualization observer readout
Local Sidereal Time
15:49:58
Azimuth
Unknown
Elevation
Unknown
Doppler factor
Unknown
Orbital elements
Apogee altitude
720.025 km
Perigee altitude
557.267 km
Semi-major axis
7,016.783 km
Eccentricity
0.0116
Inclination
97.8028°
RAAN
259.8063°
Arg. of periapsis
85.986°
True anomaly
274.13511°
Mean anomaly
275.4598°
Eccentric anomaly
274.79762°
Mean motion
3.69263 °/min
Orbital period
97.49 mins
BSTAR
0.00067302
Loading maneuver chart data...
Computing Atmospheric mass density...
Loading historical data...
Loading historical data...
Loading historical data...
Loading historical data...
Loading historical data...
Loading historical data...
Loading historical data...
Other satellites on launch #69 in the year 2015 (2015-11-26 UTC)

Documentation

Showing up to 5 results
|